Hourly Data Report for September 13, 2021

WINNIPEG THE FORKS
MANITOBA
Current Station Operator: ECCC - MSC

49°53'18.008" N
97°07'46.007" W
230.00 m
5023262
71579
XWN

Download Data

Hourly Data (September 2021)
Hourly Data Report for September 13, 2021
TIME
LST
Temp Definition
°C
Dew Point Definition
°C
Rel Hum Definition
%
Precip. Amount Definition
mm

Wind Dir Definition
10's deg

Wind Spd Definition
km/h
Visibility Definition
km
Stn Press Definition
kPa
Hmdx Definition


Wind Chill Definition


Weather Definition


00:00 13.9 7.2 64 0.0 9 3   98.97     LegendNANA
01:00 13.5 7.4 67 0.0 9 4   98.94     LegendNANA
02:00 13.6 6.7 63 0.0 10 4   98.86     LegendNANA
03:00 13.8 7.0 63 0.0 11 3   98.82     LegendNANA
04:00 13.9 7.3 65 0.0 9 3   98.76     LegendNANA
05:00 14.0 7.7 66 0.0 2 2   98.72     LegendNANA
06:00 14.1 7.6 65 0.0 32 2   98.67     LegendNANA
07:00 14.5 7.7 63 0.0 33 3   98.60     LegendNANA
08:00 15.6 8.3 62 0.0 27 3   98.48     LegendNANA
09:00 17.2 8.4 56 0.0 20 7   98.42     LegendNANA
10:00 19.7 8.7 49 0.0 21 7   98.36     LegendNANA
11:00 21.4 8.0 42 0.0 21 11   98.29     LegendNANA
12:00 21.2 8.5 44 0.0 21 11   98.24     LegendNANA
13:00 20.6 8.3 45 0.0 20 12   98.25     LegendNANA
14:00 20.7 8.6 46 0.0 21 14   98.28     LegendNANA
15:00 20.3 9.1 49 0.0 20 10   98.18     LegendNANA
16:00 20.1 9.5 50 0.0 21 12   98.16     LegendNANA
17:00 19.4 10.1 55 0.0 21 10   98.15     LegendNANA
18:00 17.7 12.1 70 0.0 21 7   98.13     LegendNANA
19:00 17.0 12.2 74 0.0 21 7   98.10     LegendNANA
20:00 16.2 12.4 79 0.0 21 11   98.11     LegendNANA
21:00 15.5 12.0 79 0.0 21 10   98.12     LegendNANA
22:00 14.7 11.7 82 0.0 21 13   98.10     LegendNANA
23:00 13.9 11.7 87 0.0 22 10   98.09     LegendNANA

Notes on Data Quality.

Legend

  • E = Estimated
  • M = Missing
  • NA = Not Available*
  • [empty] = Indicates an unobserved value
Date modified: